Time,TemperatureF,DewpointF,PressureIn,WindDirection,WindDirectionDegrees,WindSpeedMPH,WindSpeedGustMPH,Humidity,HourlyPrecipIn,Conditions,Clouds,dailyrainin,SoftwareType,DateUTC
2013-09-22 00:01:00,52.5,46.8,29.91,East,98,2.0,3.0,81,0.00,,CLR,0.00,VWS V14.01,2013-09-22 05:01:00,
2013-09-22 00:06:00,52.3,46.7,29.91,ESE,118,0.0,3.0,81,0.00,,CLR,0.00,VWS V14.01,2013-09-22 05:06:00,
2013-09-22 00:11:00,51.7,46.4,29.91,ESE,121,3.0,3.0,82,0.00,,CLR,0.00,VWS V14.01,2013-09-22 05:11:00,
2013-09-22 00:16:00,51.4,46.4,29.91,ESE,111,2.0,3.0,83,0.00,,CLR,0.00,VWS V14.01,2013-09-22 05:16:00,
2013-09-22 00:21:00,51.0,46.0,29.91,SE,125,3.0,3.0,83,0.00,,CLR,0.00,VWS V14.01,2013-09-22 05:21:00,
2013-09-22 00:26:00,50.7,46.0,29.91,SE,130,1.0,3.0,84,0.00,,CLR,0.00,VWS V14.01,2013-09-22 05:26:00,
2013-09-22 00:31:00,50.5,46.2,29.91,SE,132,2.0,2.0,85,0.00,,CLR,0.00,VWS V14.01,2013-09-22 05:31:00,
2013-09-22 00:36:00,50.5,46.2,29.91,SE,130,1.0,3.0,85,0.00,,CLR,0.00,VWS V14.01,2013-09-22 05:36:00,
2013-09-22 00:41:00,50.5,46.2,29.91,ESE,115,2.0,3.0,85,0.00,,CLR,0.00,VWS V14.01,2013-09-22 05:41:00,
2013-09-22 00:46:00,50.5,46.2,29.91,ESE,121,2.0,4.0,85,0.00,,CLR,0.00,VWS V14.01,2013-09-22 05:46:00,
2013-09-22 00:51:00,50.6,46.6,29.91,ESE,122,2.0,4.0,86,0.00,,CLR,0.00,VWS V14.01,2013-09-22 05:51:00,
2013-09-22 00:56:00,50.6,46.3,29.91,SE,124,2.0,4.0,85,0.00,,CLR,0.00,VWS V14.01,2013-09-22 05:56:00,
2013-09-22 01:01:00,50.4,46.4,29.91,ESE,111,2.0,2.0,86,0.00,,CLR,0.00,VWS V14.01,2013-09-22 06:01:00,
2013-09-22 01:06:00,50.2,46.2,29.91,SE,124,3.0,3.0,86,0.00,,CLR,0.00,VWS V14.01,2013-09-22 06:06:00,
2013-09-22 01:11:00,50.4,46.7,29.91,SE,132,2.0,4.0,87,0.00,,CLR,0.00,VWS V14.01,2013-09-22 06:11:00,
2013-09-22 01:17:00,50.6,46.6,29.91,ESE,121,3.0,5.0,86,0.00,,CLR,0.00,VWS V14.01,2013-09-22 06:17:00,
2013-09-22 01:22:00,50.8,46.8,29.91,SE,129,2.0,5.0,86,0.00,,CLR,0.00,VWS V14.01,2013-09-22 06:22:00,
2013-09-22 01:27:00,50.9,46.9,29.91,ESE,107,2.0,5.0,86,0.00,,CLR,0.00,VWS V14.01,2013-09-22 06:27:00,
2013-09-22 01:32:00,51.0,47.0,29.91,ESE,106,3.0,3.0,86,0.00,,CLR,0.00,VWS V14.01,2013-09-22 06:32:00,
2013-09-22 01:37:00,51.1,46.8,29.91,ESE,106,3.0,6.0,85,0.00,,CLR,0.00,VWS V14.01,2013-09-22 06:37:00,
2013-09-22 01:42:00,51.1,46.8,29.91,East,97,3.0,6.0,85,0.00,,CLR,0.00,VWS V14.01,2013-09-22 06:42:00,
2013-09-22 01:47:00,51.0,46.7,29.92,ESE,107,3.0,6.0,85,0.00,,CLR,0.00,VWS V14.01,2013-09-22 06:47:00,
2013-09-22 01:52:00,51.0,46.7,29.92,East,93,3.0,6.0,85,0.00,,CLR,0.00,VWS V14.01,2013-09-22 06:52:00,
2013-09-22 01:57:00,51.0,46.7,29.92,ESE,102,0.0,6.0,85,0.00,,CLR,0.00,VWS V14.01,2013-09-22 06:57:00,
2013-09-22 02:02:00,50.7,46.4,29.92,East,96,2.0,2.0,85,0.00,,CLR,0.00,VWS V14.01,2013-09-22 07:02:00,
2013-09-22 02:07:00,50.5,46.5,29.92,East,97,1.0,3.0,86,0.00,,CLR,0.00,VWS V14.01,2013-09-22 07:07:00,
2013-09-22 02:12:00,50.4,46.4,29.92,East,96,4.0,4.0,86,0.00,,CLR,0.00,VWS V14.01,2013-09-22 07:12:00,
2013-09-22 02:17:00,50.4,46.4,29.91,East,95,3.0,5.0,86,0.00,,CLR,0.00,VWS V14.01,2013-09-22 07:17:00,
2013-09-22 02:22:00,50.5,46.5,29.91,ESE,111,3.0,5.0,86,0.00,,CLR,0.00,VWS V14.01,2013-09-22 07:22:00,
2013-09-22 02:27:00,50.6,46.6,29.91,East,91,4.0,5.0,86,0.00,,CLR,0.00,VWS V14.01,2013-09-22 07:27:00,
2013-09-22 02:32:00,50.7,46.7,29.91,ESE,103,4.0,4.0,86,0.00,,CLR,0.00,VWS V14.01,2013-09-22 07:32:00,
2013-09-22 02:37:00,50.7,46.7,29.91,East,98,3.0,5.0,86,0.00,,CLR,0.00,VWS V14.01,2013-09-22 07:37:00,
2013-09-22 02:42:00,50.7,46.7,29.91,East,101,4.0,5.0,86,0.00,,CLR,0.00,VWS V14.01,2013-09-22 07:42:00,
2013-09-22 02:47:00,50.8,46.8,29.91,East,99,4.0,5.0,86,0.00,,CLR,0.00,VWS V14.01,2013-09-22 07:47:00,
2013-09-22 02:52:00,50.9,46.6,29.91,ESE,109,4.0,5.0,85,0.00,,CLR,0.00,VWS V14.01,2013-09-22 07:52:00,
2013-09-22 02:57:00,50.8,46.8,29.91,ESE,111,3.0,5.0,86,0.00,,CLR,0.00,VWS V14.01,2013-09-22 07:57:00,
2013-09-22 03:02:00,50.7,47.0,29.91,ESE,120,4.0,5.0,87,0.00,,CLR,0.00,VWS V14.01,2013-09-22 08:02:00,
2013-09-22 03:07:00,50.9,46.9,29.91,East,100,5.0,6.0,86,0.00,,CLR,0.00,VWS V14.01,2013-09-22 08:07:00,
2013-09-22 03:12:00,50.8,46.8,29.91,ESE,115,3.0,6.0,86,0.00,,CLR,0.00,VWS V14.01,2013-09-22 08:12:00,
2013-09-22 03:17:00,50.6,46.6,29.91,ESE,105,4.0,6.0,86,0.00,,CLR,0.00,VWS V14.01,2013-09-22 08:17:00,
2013-09-22 03:22:00,50.4,46.7,29.91,ESE,107,3.0,6.0,87,0.00,,CLR,0.00,VWS V14.01,2013-09-22 08:22:00,
2013-09-22 03:27:00,50.4,46.7,29.91,SE,124,4.0,6.0,87,0.00,,CLR,0.00,VWS V14.01,2013-09-22 08:27:00,
2013-09-22 03:32:00,50.4,46.7,29.91,ESE,118,4.0,7.0,87,0.00,,CLR,0.00,VWS V14.01,2013-09-22 08:32:00,
2013-09-22 03:37:00,50.2,46.5,29.91,SE,132,4.0,7.0,87,0.00,,CLR,0.00,VWS V14.01,2013-09-22 08:37:00,
2013-09-22 03:42:00,49.7,46.3,29.92,ESE,113,4.0,7.0,88,0.00,,CLR,0.00,VWS V14.01,2013-09-22 08:42:00,
2013-09-22 03:47:00,49.7,46.3,29.92,SE,125,4.0,7.0,88,0.00,,CLR,0.00,VWS V14.01,2013-09-22 08:47:00,
2013-09-22 03:52:00,49.6,46.2,29.92,SE,128,4.0,7.0,88,0.00,,CLR,0.00,VWS V14.01,2013-09-22 08:52:00,
2013-09-22 03:57:00,49.3,45.9,29.92,SE,129,3.0,7.0,88,0.00,,CLR,0.00,VWS V14.01,2013-09-22 08:57:00,
2013-09-22 04:02:00,48.9,45.8,29.92,ESE,117,2.0,4.0,89,0.00,,CLR,0.00,VWS V14.01,2013-09-22 09:02:00,
2013-09-22 04:07:00,48.6,45.5,29.92,ESE,117,4.0,4.0,89,0.00,,CLR,0.00,VWS V14.01,2013-09-22 09:07:00,
2013-09-22 04:12:00,48.5,45.7,29.92,SE,125,2.0,4.0,90,0.00,,CLR,0.00,VWS V14.01,2013-09-22 09:12:00,
2013-09-22 04:17:00,48.6,45.8,29.92,ESE,107,4.0,5.0,90,0.00,,CLR,0.00,VWS V14.01,2013-09-22 09:17:00,
2013-09-22 04:22:00,48.9,46.1,29.92,SE,124,4.0,5.0,90,0.00,,CLR,0.00,VWS V14.01,2013-09-22 09:22:00,
2013-09-22 04:27:00,48.9,46.1,29.92,SE,128,4.0,6.0,90,0.00,,CLR,0.00,VWS V14.01,2013-09-22 09:27:00,
2013-09-22 04:32:00,48.7,45.9,29.92,ESE,110,4.0,6.0,90,0.00,,CLR,0.00,VWS V14.01,2013-09-22 09:32:00,
2013-09-22 04:37:00,48.7,46.2,29.92,ESE,111,3.0,6.0,91,0.00,,CLR,0.00,VWS V14.01,2013-09-22 09:37:00,
2013-09-22 04:42:00,48.9,46.1,29.92,ESE,111,5.0,6.0,90,0.00,,CLR,0.00,VWS V14.01,2013-09-22 09:42:00,
2013-09-22 04:47:00,49.1,46.3,29.92,SE,124,4.0,6.0,90,0.00,,CLR,0.00,VWS V14.01,2013-09-22 09:47:00,
2013-09-22 04:52:00,49.1,46.3,29.92,ESE,113,4.0,6.0,90,0.00,,CLR,0.00,VWS V14.01,2013-09-22 09:52:00,
2013-09-22 04:57:00,49.2,46.4,29.92,ESE,111,5.0,6.0,90,0.00,,SCT075,0.00,VWS V14.01,2013-09-22 09:57:00,
2013-09-22 05:02:00,49.2,46.4,29.92,East,95,5.0,7.0,90,0.00,,SCT075,0.00,VWS V14.01,2013-09-22 10:02:00,
2013-09-22 05:07:00,49.1,46.3,29.92,ESE,114,6.0,7.0,90,0.00,,SCT075,0.00,VWS V14.01,2013-09-22 10:07:00,
2013-09-22 05:12:00,49.1,46.3,29.92,SE,125,5.0,7.0,90,0.00,,SCT075,0.00,VWS V14.01,2013-09-22 10:12:00,
2013-09-22 05:17:00,49.1,46.3,29.92,SE,134,3.0,7.0,90,0.00,,SCT075,0.00,VWS V14.01,2013-09-22 10:17:00,
2013-09-22 05:22:00,49.0,46.2,29.92,ESE,104,3.0,7.0,90,0.00,,SCT075,0.00,VWS V14.01,2013-09-22 10:22:00,
2013-09-22 05:27:00,49.2,46.7,29.92,ESE,115,5.0,7.0,91,0.00,,SCT075,0.00,VWS V14.01,2013-09-22 10:27:00,
2013-09-22 05:32:00,49.2,46.4,29.92,ESE,111,5.0,6.0,90,0.00,,SCT075,0.00,VWS V14.01,2013-09-22 10:32:00,
2013-09-22 05:37:00,48.9,46.1,29.92,ESE,105,4.0,6.0,90,0.00,,SCT075,0.00,VWS V14.01,2013-09-22 10:37:00,
2013-09-22 05:42:00,48.9,46.4,29.92,ESE,107,4.0,6.0,91,0.00,,SCT075,0.00,VWS V14.01,2013-09-22 10:42:00,
2013-09-22 05:47:00,49.0,46.5,29.92,ESE,105,5.0,8.0,91,0.00,,SCT075,0.00,VWS V14.01,2013-09-22 10:47:00,
2013-09-22 05:52:00,49.1,46.3,29.92,East,100,5.0,8.0,90,0.00,,SCT075,0.00,VWS V14.01,2013-09-22 10:52:00,
2013-09-22 05:57:00,49.2,46.4,29.92,East,101,6.0,8.0,90,0.00,,SCT075,0.00,VWS V14.01,2013-09-22 10:57:00,
2013-09-22 06:02:00,49.3,46.5,29.92,ESE,120,6.0,8.0,90,0.00,,CLR,0.00,VWS V14.01,2013-09-22 11:02:00,
2013-09-22 06:07:00,49.2,46.4,29.93,ESE,106,5.0,8.0,90,0.00,,CLR,0.00,VWS V14.01,2013-09-22 11:07:00,
2013-09-22 06:12:00,49.1,46.3,29.93,ESE,119,6.0,8.0,90,0.00,,CLR,0.00,VWS V14.01,2013-09-22 11:12:00,
2013-09-22 06:17:00,48.9,46.1,29.93,SE,133,5.0,8.0,90,0.00,,CLR,0.00,VWS V14.01,2013-09-22 11:17:00,
2013-09-22 06:22:00,48.6,46.1,29.93,ESE,123,4.0,8.0,91,0.00,,CLR,0.00,VWS V14.01,2013-09-22 11:22:00,
2013-09-22 06:27:00,48.6,46.1,29.93,East,100,5.0,8.0,91,0.00,,CLR,0.00,VWS V14.01,2013-09-22 11:27:00,
2013-09-22 06:32:00,48.6,46.1,29.93,ESE,105,6.0,6.0,91,0.00,,CLR,0.00,VWS V14.01,2013-09-22 11:32:00,
2013-09-22 06:37:00,48.7,46.2,29.93,ESE,114,7.0,8.0,91,0.00,,CLR,0.00,VWS V14.01,2013-09-22 11:37:00,
2013-09-22 06:42:00,48.7,46.2,29.93,ESE,115,7.0,8.0,91,0.00,,CLR,0.00,VWS V14.01,2013-09-22 11:42:00,
2013-09-22 06:47:00,48.7,46.2,29.93,ESE,119,5.0,8.0,91,0.00,,CLR,0.00,VWS V14.01,2013-09-22 11:47:00,
2013-09-22 06:52:00,48.7,46.2,29.92,ESE,106,6.0,10.0,91,0.00,,CLR,0.00,VWS V14.01,2013-09-22 11:52:00,
2013-09-22 06:57:00,48.9,46.4,29.93,ESE,103,6.0,12.0,91,0.00,,CLR,0.00,VWS V14.01,2013-09-22 11:57:00,
2013-09-22 07:02:00,48.7,46.2,29.93,East,96,5.0,7.0,91,0.00,,CLR,0.00,VWS V14.01,2013-09-22 12:02:00,
2013-09-22 07:07:00,48.7,46.2,29.93,ESE,109,5.0,8.0,91,0.00,,CLR,0.00,VWS V14.01,2013-09-22 12:07:00,
2013-09-22 07:12:00,48.8,46.3,29.93,East,93,7.0,9.0,91,0.00,,CLR,0.00,VWS V14.01,2013-09-22 12:12:00,
2013-09-22 07:17:00,48.8,46.3,29.93,ESE,121,9.0,9.0,91,0.00,,CLR,0.00,VWS V14.01,2013-09-22 12:17:00,
2013-09-22 07:22:00,48.9,46.4,29.93,ESE,122,6.0,9.0,91,0.00,,CLR,0.00,VWS V14.01,2013-09-22 12:22:00,
2013-09-22 07:27:00,48.9,46.4,29.93,ESE,111,7.0,9.0,91,0.00,,CLR,0.00,VWS V14.01,2013-09-22 12:27:00,
2013-09-22 07:32:00,49.2,46.7,29.93,SE,138,6.0,8.0,91,0.00,,CLR,0.00,VWS V14.01,2013-09-22 12:32:00,
2013-09-22 07:37:00,49.4,46.9,29.93,ESE,108,8.0,10.0,91,0.00,,CLR,0.00,VWS V14.01,2013-09-22 12:37:00,
2013-09-22 07:42:00,49.6,46.8,29.93,SE,126,6.0,10.0,90,0.00,,CLR,0.00,VWS V14.01,2013-09-22 12:42:00,
2013-09-22 07:47:00,49.8,47.0,29.93,ESE,113,7.0,10.0,90,0.00,,CLR,0.00,VWS V14.01,2013-09-22 12:47:00,
2013-09-22 07:52:00,50.0,47.2,29.93,SE,127,6.0,10.0,90,0.00,,CLR,0.00,VWS V14.01,2013-09-22 12:52:00,
2013-09-22 07:57:00,50.2,47.4,29.93,ESE,120,9.0,10.0,90,0.00,,CLR,0.00,VWS V14.01,2013-09-22 12:57:00,
2013-09-22 08:02:00,50.5,47.7,29.93,SE,142,6.0,8.0,90,0.00,,CLR,0.00,VWS V14.01,2013-09-22 13:02:00,
2013-09-22 08:07:00,50.7,47.9,29.93,SSE,148,6.0,10.0,90,0.00,,CLR,0.00,VWS V14.01,2013-09-22 13:07:00,
2013-09-22 08:12:00,51.0,48.2,29.93,SE,134,9.0,11.0,90,0.00,,CLR,0.00,VWS V14.01,2013-09-22 13:12:00,
2013-09-22 08:17:00,51.5,48.4,29.93,ESE,122,9.0,11.0,89,0.00,,CLR,0.00,VWS V14.01,2013-09-22 13:17:00,
2013-09-22 08:22:00,51.7,48.6,29.94,SE,141,5.0,11.0,89,0.00,,CLR,0.00,VWS V14.01,2013-09-22 13:22:00,
2013-09-22 08:27:00,52.0,48.9,29.93,SE,134,10.0,12.0,89,0.00,,CLR,0.00,VWS V14.01,2013-09-22 13:27:00,
2013-09-22 08:32:00,52.1,48.7,29.93,ESE,116,8.0,14.0,88,0.00,,CLR,0.00,VWS V14.01,2013-09-22 13:32:00,
2013-09-22 08:37:00,52.2,48.8,29.93,SE,126,9.0,14.0,88,0.00,,CLR,0.00,VWS V14.01,2013-09-22 13:37:00,
2013-09-22 08:42:00,52.6,49.5,29.93,SE,140,8.0,14.0,89,0.00,,CLR,0.00,VWS V14.01,2013-09-22 13:42:00,
2013-09-22 08:47:00,53.0,49.5,29.93,SE,130,9.0,14.0,88,0.00,,CLR,0.00,VWS V14.01,2013-09-22 13:47:00,
2013-09-22 08:52:00,53.3,49.5,29.93,ESE,108,12.0,14.0,87,0.00,,CLR,0.00,VWS V14.01,2013-09-22 13:52:00,
2013-09-22 08:57:00,53.7,49.9,29.93,SE,146,8.0,14.0,87,0.00,,CLR,0.00,VWS V14.01,2013-09-22 13:57:00,
2013-09-22 09:02:00,54.2,50.1,29.94,SE,131,11.0,13.0,86,0.00,,CLR,0.00,VWS V14.01,2013-09-22 14:02:00,
2013-09-22 09:07:00,54.6,50.5,29.94,ESE,108,10.0,14.0,86,0.00,,CLR,0.00,VWS V14.01,2013-09-22 14:07:00,
2013-09-22 09:12:00,55.2,50.8,29.94,SE,128,11.0,14.0,85,0.00,,CLR,0.00,VWS V14.01,2013-09-22 14:12:00,
2013-09-22 09:17:00,55.6,50.8,29.94,SE,141,8.0,14.0,84,0.00,,CLR,0.00,VWS V14.01,2013-09-22 14:17:00,
2013-09-22 09:22:00,56.1,50.7,29.94,SSE,153,11.0,14.0,82,0.00,,CLR,0.00,VWS V14.01,2013-09-22 14:22:00,
2013-09-22 09:27:00,56.4,50.7,29.94,SE,131,10.0,15.0,81,0.00,,CLR,0.00,VWS V14.01,2013-09-22 14:27:00,
2013-09-22 09:32:00,56.6,50.8,29.94,SE,142,10.0,16.0,81,0.00,,CLR,0.00,VWS V14.01,2013-09-22 14:32:00,
2013-09-22 09:37:00,57.0,51.2,29.94,ESE,121,9.0,16.0,81,0.00,,CLR,0.00,VWS V14.01,2013-09-22 14:37:00,
2013-09-22 09:42:00,57.3,51.2,29.94,ESE,105,13.0,16.0,80,0.00,,CLR,0.00,VWS V14.01,2013-09-22 14:42:00,
2013-09-22 09:47:00,57.8,51.3,29.94,ESE,115,11.0,16.0,79,0.00,,CLR,0.00,VWS V14.01,2013-09-22 14:47:00,
2013-09-22 09:52:00,58.2,51.7,29.94,SE,124,12.0,16.0,79,0.00,,CLR,0.00,VWS V14.01,2013-09-22 14:52:00,
2013-09-22 09:57:00,58.6,51.8,29.94,SE,135,11.0,16.0,78,0.00,,CLR,0.00,VWS V14.01,2013-09-22 14:57:00,
2013-09-22 10:02:00,59.0,51.8,29.94,SE,132,9.0,14.0,77,0.00,,CLR,0.00,VWS V14.01,2013-09-22 15:02:00,
2013-09-22 10:07:00,59.6,52.4,29.93,SE,143,6.0,14.0,77,0.00,,CLR,0.00,VWS V14.01,2013-09-22 15:07:00,
2013-09-22 10:12:00,60.1,52.5,29.93,SE,133,12.0,14.0,76,0.00,,CLR,0.00,VWS V14.01,2013-09-22 15:12:00,
2013-09-22 10:17:00,60.8,52.1,29.93,SE,134,11.0,14.0,73,0.00,,CLR,0.00,VWS V14.01,2013-09-22 15:17:00,
2013-09-22 10:22:00,61.1,52.0,29.93,SSE,152,12.0,17.0,72,0.00,,CLR,0.00,VWS V14.01,2013-09-22 15:22:00,
2013-09-22 10:27:00,61.6,52.9,29.93,SSE,153,11.0,17.0,73,0.00,,CLR,0.00,VWS V14.01,2013-09-22 15:27:00,
2013-09-22 10:32:00,62.1,52.6,29.93,SE,139,8.0,11.0,71,0.00,,CLR,0.00,VWS V14.01,2013-09-22 15:32:00,
2013-09-22 10:37:00,62.5,52.6,29.93,ESE,104,10.0,15.0,70,0.00,,CLR,0.00,VWS V14.01,2013-09-22 15:37:00,
2013-09-22 10:42:00,62.6,51.9,29.93,SE,133,10.0,15.0,68,0.00,,CLR,0.00,VWS V14.01,2013-09-22 15:42:00,
2013-09-22 10:47:00,63.0,51.9,29.93,SE,143,10.0,16.0,67,0.00,,CLR,0.00,VWS V14.01,2013-09-22 15:47:00,
2013-09-22 10:52:00,63.3,51.8,29.93,SE,136,10.0,16.0,66,0.00,,CLR,0.00,VWS V14.01,2013-09-22 15:52:00,
2013-09-22 10:57:00,63.9,51.9,29.93,SE,133,11.0,16.0,65,0.00,,CLR,0.00,VWS V14.01,2013-09-22 15:57:00,
2013-09-22 11:02:00,64.3,53.1,29.93,SE,131,12.0,15.0,67,0.00,,CLR,0.00,VWS V14.01,2013-09-22 16:02:00,
2013-09-22 11:07:00,64.4,52.0,29.93,ESE,118,11.0,17.0,64,0.00,,CLR,0.00,VWS V14.01,2013-09-22 16:07:00,
2013-09-22 11:12:00,64.8,51.5,29.93,SSE,153,14.0,17.0,62,0.00,,CLR,0.00,VWS V14.01,2013-09-22 16:12:00,
2013-09-22 11:17:00,65.1,52.2,29.93,SE,141,12.0,17.0,63,0.00,,CLR,0.00,VWS V14.01,2013-09-22 16:17:00,
2013-09-22 11:22:00,65.4,52.9,29.93,ESE,115,13.0,19.0,64,0.00,,CLR,0.00,VWS V14.01,2013-09-22 16:22:00,
2013-09-22 11:27:00,66.0,52.2,29.93,SE,138,10.0,19.0,61,0.00,,CLR,0.00,VWS V14.01,2013-09-22 16:27:00,
2013-09-22 11:32:00,66.2,51.9,29.93,ESE,107,14.0,15.0,60,0.00,,CLR,0.00,VWS V14.01,2013-09-22 16:32:00,
2013-09-22 11:37:00,66.6,52.8,29.92,SSE,156,14.0,19.0,61,0.00,,CLR,0.00,VWS V14.01,2013-09-22 16:37:00,
2013-09-22 11:42:00,67.1,53.2,29.92,SE,135,15.0,19.0,61,0.00,,CLR,0.00,VWS V14.01,2013-09-22 16:42:00,
2013-09-22 11:47:00,67.4,52.6,29.92,SE,131,10.0,19.0,59,0.00,,CLR,0.00,VWS V14.01,2013-09-22 16:47:00,
2013-09-22 11:52:00,67.7,53.3,29.92,SE,140,11.0,19.0,60,0.00,,CLR,0.00,VWS V14.01,2013-09-22 16:52:00,
2013-09-22 11:57:00,67.9,52.6,29.92,SSE,150,11.0,19.0,58,0.00,,CLR,0.00,VWS V14.01,2013-09-22 16:57:00,
2013-09-22 12:02:00,68.1,51.8,29.92,SSE,150,10.0,15.0,56,0.00,,CLR,0.00,VWS V14.01,2013-09-22 17:02:00,
2013-09-22 12:07:00,68.6,52.8,29.92,SE,138,11.0,19.0,57,0.00,,CLR,0.00,VWS V14.01,2013-09-22 17:07:00,
2013-09-22 12:12:00,68.9,52.1,29.92,SE,145,9.0,19.0,55,0.00,,CLR,0.00,VWS V14.01,2013-09-22 17:12:00,
2013-09-22 12:17:00,69.4,53.5,29.91,SSE,152,9.0,19.0,57,0.00,,CLR,0.00,VWS V14.01,2013-09-22 17:17:00,
2013-09-22 12:22:00,69.6,52.7,29.91,SE,138,14.0,19.0,55,0.00,,CLR,0.00,VWS V14.01,2013-09-22 17:22:00,
2013-09-22 12:27:00,69.4,52.0,29.91,ESE,123,13.0,19.0,54,0.00,,CLR,0.00,VWS V14.01,2013-09-22 17:27:00,
2013-09-22 12:32:00,69.7,52.3,29.91,SSE,151,11.0,17.0,54,0.00,,CLR,0.00,VWS V14.01,2013-09-22 17:32:00,
2013-09-22 12:37:00,70.2,53.3,29.91,SE,131,12.0,17.0,55,0.00,,CLR,0.00,VWS V14.01,2013-09-22 17:37:00,
2013-09-22 12:42:00,70.2,52.8,29.90,ESE,120,12.0,17.0,54,0.00,,CLR,0.00,VWS V14.01,2013-09-22 17:42:00,
2013-09-22 12:47:00,70.0,52.6,29.90,SSE,155,14.0,19.0,54,0.00,,CLR,0.00,VWS V14.01,2013-09-22 17:47:00,
2013-09-22 12:52:00,70.1,52.7,29.90,SE,137,10.0,19.0,54,0.00,,CLR,0.00,VWS V14.01,2013-09-22 17:52:00,
2013-09-22 12:57:00,70.3,52.9,29.90,SE,135,12.0,19.0,54,0.00,,CLR,0.00,VWS V14.01,2013-09-22 17:57:00,
2013-09-22 13:02:00,70.6,53.2,29.90,SSE,148,9.0,14.0,54,0.00,,CLR,0.00,VWS V14.01,2013-09-22 18:02:00,
2013-09-22 13:07:00,71.0,55.0,29.89,South,183,14.0,20.0,57,0.00,,CLR,0.00,VWS V14.01,2013-09-22 18:07:00,
2013-09-22 13:12:00,71.2,53.7,29.89,SE,134,8.0,20.0,54,0.00,,CLR,0.00,VWS V14.01,2013-09-22 18:12:00,
2013-09-22 13:17:00,71.3,53.3,29.89,SE,129,13.0,20.0,53,0.00,,CLR,0.00,VWS V14.01,2013-09-22 18:17:00,
2013-09-22 13:22:00,71.1,53.1,29.88,SSE,155,11.0,20.0,53,0.00,,CLR,0.00,VWS V14.01,2013-09-22 18:22:00,
2013-09-22 13:27:00,71.5,54.5,29.88,SSE,153,10.0,20.0,55,0.00,,CLR,0.00,VWS V14.01,2013-09-22 18:27:00,
2013-09-22 13:32:00,71.6,53.6,29.88,ESE,120,15.0,19.0,53,0.00,,CLR,0.00,VWS V14.01,2013-09-22 18:32:00,
2013-09-22 13:37:00,71.9,54.9,29.88,ESE,121,8.0,19.0,55,0.00,,CLR,0.00,VWS V14.01,2013-09-22 18:37:00,
2013-09-22 13:42:00,71.8,53.8,29.88,SE,131,10.0,19.0,53,0.00,,CLR,0.00,VWS V14.01,2013-09-22 18:42:00,
2013-09-22 13:47:00,72.3,55.2,29.88,SSE,155,13.0,19.0,55,0.00,,CLR,0.00,VWS V14.01,2013-09-22 18:47:00,
2013-09-22 13:52:00,72.4,54.3,29.88,SSW,203,14.0,19.0,53,0.00,,CLR,0.00,VWS V14.01,2013-09-22 18:52:00,
2013-09-22 13:57:00,72.7,55.6,29.87,SSE,153,14.0,19.0,55,0.00,,CLR,0.00,VWS V14.01,2013-09-22 18:57:00,
2013-09-22 14:02:00,72.7,55.1,29.87,SE,132,13.0,20.0,54,0.00,,CLR,0.00,VWS V14.01,2013-09-22 19:02:00,
2013-09-22 14:07:00,72.6,54.0,29.87,SSW,198,12.0,20.0,52,0.00,,CLR,0.00,VWS V14.01,2013-09-22 19:07:00,
2013-09-22 14:12:00,72.7,54.6,29.87,SE,146,8.0,20.0,53,0.00,,CLR,0.00,VWS V14.01,2013-09-22 19:12:00,
2013-09-22 14:17:00,72.9,54.8,29.87,SSE,155,14.0,20.0,53,0.00,,CLR,0.00,VWS V14.01,2013-09-22 19:17:00,
2013-09-22 14:22:00,73.0,54.4,29.86,SE,129,14.0,20.0,52,0.00,,CLR,0.00,VWS V14.01,2013-09-22 19:22:00,
2013-09-22 14:27:00,72.8,54.2,29.86,SSW,200,14.0,21.0,52,0.00,,CLR,0.00,VWS V14.01,2013-09-22 19:27:00,
2013-09-22 14:32:00,73.1,55.5,29.86,South,180,9.0,17.0,54,0.00,,CLR,0.00,VWS V14.01,2013-09-22 19:32:00,
2013-09-22 14:37:00,73.1,54.5,29.86,SE,145,13.0,20.0,52,0.00,,CLR,0.00,VWS V14.01,2013-09-22 19:37:00,
2013-09-22 14:42:00,73.0,54.9,29.86,SSE,158,16.0,20.0,53,0.00,,CLR,0.00,VWS V14.01,2013-09-22 19:42:00,
2013-09-22 14:47:00,72.9,53.7,29.86,SE,133,12.0,20.0,51,0.00,,CLR,0.00,VWS V14.01,2013-09-22 19:47:00,
2013-09-22 14:52:00,73.1,53.9,29.86,SSE,149,15.0,20.0,51,0.00,,CLR,0.00,VWS V14.01,2013-09-22 19:52:00,
2013-09-22 14:57:00,73.2,55.1,29.85,SSE,149,11.0,20.0,53,0.00,,CLR,0.00,VWS V14.01,2013-09-22 19:57:00,
2013-09-22 15:02:00,73.7,54.5,29.85,SSE,158,9.0,14.0,51,0.00,,CLR,0.00,VWS V14.01,2013-09-22 20:02:00,
2013-09-22 15:07:00,73.7,54.5,29.85,SE,129,14.0,17.0,51,0.00,,CLR,0.00,VWS V14.01,2013-09-22 20:07:00,
2013-09-22 15:12:00,73.7,55.0,29.85,ESE,115,10.0,18.0,52,0.00,,CLR,0.00,VWS V14.01,2013-09-22 20:12:00,
2013-09-22 15:17:00,73.8,54.0,29.85,SSE,159,10.0,18.0,50,0.00,,CLR,0.00,VWS V14.01,2013-09-22 20:17:00,
2013-09-22 15:22:00,74.1,55.4,29.85,ESE,113,11.0,20.0,52,0.00,,CLR,0.00,VWS V14.01,2013-09-22 20:22:00,
2013-09-22 15:27:00,74.1,54.3,29.85,SE,139,14.0,20.0,50,0.00,,CLR,0.00,VWS V14.01,2013-09-22 20:27:00,
2013-09-22 15:32:00,74.1,54.8,29.84,SE,131,9.0,14.0,51,0.00,,CLR,0.00,VWS V14.01,2013-09-22 20:32:00,
2013-09-22 15:37:00,74.4,54.0,29.84,South,185,10.0,15.0,49,0.00,,CLR,0.00,VWS V14.01,2013-09-22 20:37:00,
2013-09-22 15:42:00,74.1,53.7,29.84,SE,140,9.0,15.0,49,0.00,,CLR,0.00,VWS V14.01,2013-09-22 20:42:00,
2013-09-22 15:47:00,74.2,54.4,29.84,SE,136,7.0,15.0,50,0.00,,CLR,0.00,VWS V14.01,2013-09-22 20:47:00,
2013-09-22 15:52:00,74.6,54.2,29.84,SE,131,8.0,17.0,49,0.00,,CLR,0.00,VWS V14.01,2013-09-22 20:52:00,
2013-09-22 15:57:00,74.2,54.9,29.84,SE,145,6.0,17.0,51,0.00,,CLR,0.00,VWS V14.01,2013-09-22 20:57:00,
2013-09-22 16:02:00,74.3,54.5,29.84,SE,135,9.0,13.0,50,0.00,,CLR,0.00,VWS V14.01,2013-09-22 21:02:00,
2013-09-22 16:07:00,74.5,55.2,29.84,SE,138,9.0,16.0,51,0.00,,CLR,0.00,VWS V14.01,2013-09-22 21:07:00,
2013-09-22 16:12:00,74.5,55.2,29.84,ESE,123,10.0,17.0,51,0.00,,CLR,0.00,VWS V14.01,2013-09-22 21:12:00,
2013-09-22 16:17:00,74.6,54.2,29.84,SE,134,8.0,17.0,49,0.00,,CLR,0.00,VWS V14.01,2013-09-22 21:17:00,
2013-09-22 16:22:00,74.5,54.7,29.84,SE,143,14.0,17.0,50,0.00,,CLR,0.00,VWS V14.01,2013-09-22 21:22:00,
2013-09-22 16:27:00,74.4,54.6,29.84,ESE,104,12.0,17.0,50,0.00,,CLR,0.00,VWS V14.01,2013-09-22 21:27:00,
2013-09-22 16:32:00,74.2,54.9,29.83,SSE,148,7.0,13.0,51,0.00,,CLR,0.00,VWS V14.01,2013-09-22 21:32:00,
2013-09-22 16:37:00,74.3,54.5,29.83,SE,140,5.0,17.0,50,0.00,,CLR,0.00,VWS V14.01,2013-09-22 21:37:00,
2013-09-22 16:42:00,74.6,55.3,29.83,SE,133,11.0,17.0,51,0.00,,CLR,0.00,VWS V14.01,2013-09-22 21:42:00,
2013-09-22 16:47:00,74.4,54.6,29.83,SE,140,11.0,17.0,50,0.00,,CLR,0.00,VWS V14.01,2013-09-22 21:47:00,
2013-09-22 16:52:00,74.3,54.5,29.83,SE,131,10.0,17.0,50,0.00,,CLR,0.00,VWS V14.01,2013-09-22 21:52:00,
2013-09-22 16:57:00,74.4,55.7,29.83,SW,221,10.0,17.0,52,0.00,,CLR,0.00,VWS V14.01,2013-09-22 21:57:00,
2013-09-22 17:02:00,74.2,54.9,29.83,SSE,153,10.0,11.0,51,0.00,,CLR,0.00,VWS V14.01,2013-09-22 22:02:00,
2013-09-22 17:07:00,74.2,55.5,29.83,SSW,207,10.0,14.0,52,0.00,,CLR,0.00,VWS V14.01,2013-09-22 22:07:00,
2013-09-22 17:12:00,74.2,54.9,29.83,SE,135,11.0,15.0,51,0.00,,CLR,0.00,VWS V14.01,2013-09-22 22:12:00,
2013-09-22 17:17:00,73.9,55.2,29.83,SSE,158,10.0,15.0,52,0.00,,CLR,0.00,VWS V14.01,2013-09-22 22:17:00,
2013-09-22 17:22:00,73.8,55.6,29.83,SSE,160,13.0,20.0,53,0.00,,CLR,0.00,VWS V14.01,2013-09-22 22:22:00,
2013-09-22 17:27:00,73.8,55.1,29.83,SE,145,8.0,20.0,52,0.00,,CLR,0.00,VWS V14.01,2013-09-22 22:27:00,
2013-09-22 17:32:00,73.8,55.6,29.83,SSE,165,12.0,16.0,53,0.00,,CLR,0.00,VWS V14.01,2013-09-22 22:32:00,
2013-09-22 17:37:00,73.7,55.0,29.83,SE,141,12.0,16.0,52,0.00,,CLR,0.00,VWS V14.01,2013-09-22 22:37:00,
2013-09-22 17:42:00,73.6,55.4,29.83,SSE,148,13.0,16.0,53,0.00,,CLR,0.00,VWS V14.01,2013-09-22 22:42:00,
2013-09-22 17:47:00,73.5,55.3,29.83,SE,141,10.0,16.0,53,0.00,,CLR,0.00,VWS V14.01,2013-09-22 22:47:00,
2013-09-22 17:52:00,73.2,55.1,29.84,SE,136,9.0,16.0,53,0.00,,CLR,0.00,VWS V14.01,2013-09-22 22:52:00,
2013-09-22 17:57:00,73.1,55.0,29.84,SE,128,8.0,16.0,53,0.00,,CLR,0.00,VWS V14.01,2013-09-22 22:57:00,
2013-09-22 18:02:00,72.9,55.8,29.83,SE,127,6.0,9.0,55,0.00,,CLR,0.00,VWS V14.01,2013-09-22 23:02:00,
2013-09-22 18:07:00,72.6,56.0,29.83,SE,133,7.0,10.0,56,0.00,,CLR,0.00,VWS V14.01,2013-09-22 23:07:00,
2013-09-22 18:12:00,72.3,55.2,29.83,SE,127,7.0,13.0,55,0.00,,CLR,0.00,VWS V14.01,2013-09-22 23:12:00,
2013-09-22 18:17:00,72.0,55.0,29.84,SE,125,8.0,13.0,55,0.00,,CLR,0.00,VWS V14.01,2013-09-22 23:17:00,
2013-09-22 18:22:00,71.8,55.3,29.84,SE,143,7.0,13.0,56,0.00,,CLR,0.00,VWS V14.01,2013-09-22 23:22:00,
2013-09-22 18:27:00,71.5,55.5,29.84,SE,143,5.0,13.0,57,0.00,,CLR,0.00,VWS V14.01,2013-09-22 23:27:00,
2013-09-22 18:32:00,71.1,55.6,29.84,SE,135,5.0,8.0,58,0.00,,CLR,0.00,VWS V14.01,2013-09-22 23:32:00,
2013-09-22 18:37:00,70.7,55.7,29.84,SE,141,6.0,9.0,59,0.00,,CLR,0.00,VWS V14.01,2013-09-22 23:37:00,
2013-09-22 18:42:00,70.2,56.1,29.84,SE,135,6.0,9.0,61,0.00,,CLR,0.00,VWS V14.01,2013-09-22 23:42:00,
2013-09-22 18:47:00,69.8,55.8,29.84,SE,125,6.0,9.0,61,0.00,,CLR,0.00,VWS V14.01,2013-09-22 23:47:00,
2013-09-22 18:52:00,69.3,55.7,29.84,ESE,121,6.0,9.0,62,0.00,,CLR,0.00,VWS V14.01,2013-09-22 23:52:00,
2013-09-22 18:57:00,68.6,55.5,29.84,ESE,109,6.0,9.0,63,0.00,,CLR,0.00,VWS V14.01,2013-09-22 23:57:00,
2013-09-22 19:02:00,67.7,56.0,29.84,ESE,115,6.0,7.0,66,0.00,,CLR,0.00,VWS V14.01,2013-09-23 00:02:00,
2013-09-22 19:07:00,66.9,56.0,29.84,ESE,120,4.0,7.0,68,0.00,,CLR,0.00,VWS V14.01,2013-09-23 00:07:00,
2013-09-22 19:12:00,66.1,55.7,29.84,ESE,108,5.0,7.0,69,0.00,,CLR,0.00,VWS V14.01,2013-09-23 00:12:00,
2013-09-22 19:17:00,65.7,55.7,29.84,ESE,109,5.0,7.0,70,0.00,,CLR,0.00,VWS V14.01,2013-09-23 00:17:00,
2013-09-22 19:22:00,65.5,55.9,29.84,SE,125,4.0,7.0,71,0.00,,CLR,0.00,VWS V14.01,2013-09-23 00:22:00,
2013-09-22 19:27:00,65.1,55.5,29.84,ESE,118,5.0,7.0,71,0.00,,CLR,0.00,VWS V14.01,2013-09-23 00:27:00,
2013-09-22 19:32:00,64.9,55.7,29.85,SE,127,4.0,6.0,72,0.00,,CLR,0.00,VWS V14.01,2013-09-23 00:32:00,
2013-09-22 19:37:00,64.4,55.2,29.85,SE,127,4.0,7.0,72,0.00,,CLR,0.00,VWS V14.01,2013-09-23 00:37:00,
2013-09-22 19:42:00,63.7,55.3,29.85,SE,125,5.0,7.0,74,0.00,,CLR,0.00,VWS V14.01,2013-09-23 00:42:00,
2013-09-22 19:47:00,63.5,55.4,29.85,ESE,108,5.0,7.0,75,0.00,,CLR,0.00,VWS V14.01,2013-09-23 00:47:00,
2013-09-22 19:52:00,63.8,55.4,29.85,ESE,122,6.0,10.0,74,0.00,,CLR,0.00,VWS V14.01,2013-09-23 00:52:00,
2013-09-22 19:57:00,63.7,55.3,29.85,ESE,118,7.0,10.0,74,0.00,,CLR,0.00,VWS V14.01,2013-09-23 00:57:00,
2013-09-22 20:02:00,63.3,55.2,29.85,SE,138,6.0,7.0,75,0.00,,CLR,0.00,VWS V14.01,2013-09-23 01:02:00,
2013-09-22 20:07:00,63.0,55.0,29.85,SE,129,4.0,8.0,75,0.00,,CLR,0.00,VWS V14.01,2013-09-23 01:07:00,
2013-09-22 20:12:00,62.8,55.1,29.85,SE,129,6.0,8.0,76,0.00,,CLR,0.00,VWS V14.01,2013-09-23 01:12:00,
2013-09-22 20:17:00,62.6,54.9,29.85,ESE,119,5.0,8.0,76,0.00,,CLR,0.00,VWS V14.01,2013-09-23 01:17:00,
2013-09-22 20:22:00,62.4,55.1,29.86,ESE,117,6.0,8.0,77,0.00,,CLR,0.00,VWS V14.01,2013-09-23 01:22:00,
2013-09-22 20:27:00,62.1,54.8,29.86,ESE,113,6.0,8.0,77,0.00,,CLR,0.00,VWS V14.01,2013-09-23 01:27:00,
2013-09-22 20:32:00,61.7,54.8,29.86,SE,133,7.0,9.0,78,0.00,,CLR,0.00,VWS V14.01,2013-09-23 01:32:00,
2013-09-22 20:37:00,61.5,54.9,29.86,SE,130,6.0,9.0,79,0.00,,CLR,0.00,VWS V14.01,2013-09-23 01:37:00,
2013-09-22 20:42:00,61.1,54.5,29.86,SE,127,5.0,9.0,79,0.00,,CLR,0.00,VWS V14.01,2013-09-23 01:42:00,
2013-09-22 20:47:00,60.9,54.7,29.86,ESE,108,5.0,9.0,80,0.00,,CLR,0.00,VWS V14.01,2013-09-23 01:47:00,
2013-09-22 20:52:00,60.5,54.3,29.86,ESE,113,5.0,9.0,80,0.00,,CLR,0.00,VWS V14.01,2013-09-23 01:52:00,
2013-09-22 20:57:00,60.2,54.4,29.86,SE,128,5.0,9.0,81,0.00,,CLR,0.00,VWS V14.01,2013-09-23 01:57:00,
2013-09-22 21:02:00,60.0,54.5,29.86,SE,131,6.0,8.0,82,0.00,,CLR,0.00,VWS V14.01,2013-09-23 02:02:00,
2013-09-22 21:07:00,59.8,54.3,29.86,ESE,119,4.0,8.0,82,0.00,,CLR,0.00,VWS V14.01,2013-09-23 02:07:00,
2013-09-22 21:12:00,59.6,54.4,29.87,ESE,112,4.0,8.0,83,0.00,,CLR,0.00,VWS V14.01,2013-09-23 02:12:00,
2013-09-22 21:17:00,59.5,54.3,29.87,ESE,119,6.0,8.0,83,0.00,,CLR,0.00,VWS V14.01,2013-09-23 02:17:00,
2013-09-22 21:22:00,59.2,54.0,29.87,ESE,117,6.0,8.0,83,0.00,,CLR,0.00,VWS V14.01,2013-09-23 02:22:00,
2013-09-22 21:27:00,59.0,54.2,29.87,ESE,111,5.0,8.0,84,0.00,,CLR,0.00,VWS V14.01,2013-09-23 02:27:00,
2013-09-22 21:32:00,58.8,54.0,29.87,SE,127,5.0,7.0,84,0.00,,CLR,0.00,VWS V14.01,2013-09-23 02:32:00,
2013-09-22 21:37:00,58.5,54.0,29.87,ESE,105,5.0,7.0,85,0.00,,CLR,0.00,VWS V14.01,2013-09-23 02:37:00,
2013-09-22 21:42:00,58.3,53.8,29.87,ESE,110,7.0,8.0,85,0.00,,CLR,0.00,VWS V14.01,2013-09-23 02:42:00,
2013-09-22 21:47:00,58.2,53.7,29.87,ESE,117,7.0,8.0,85,0.00,,CLR,0.00,VWS V14.01,2013-09-23 02:47:00,
2013-09-22 21:52:00,58.1,53.9,29.87,ESE,123,6.0,8.0,86,0.00,,CLR,0.00,VWS V14.01,2013-09-23 02:52:00,
2013-09-22 21:57:00,57.8,53.7,29.87,ESE,121,5.0,8.0,86,0.00,,CLR,0.00,VWS V14.01,2013-09-23 02:57:00,
2013-09-22 22:02:00,57.6,53.8,29.87,SE,133,5.0,7.0,87,0.00,,CLR,0.00,VWS V14.01,2013-09-23 03:02:00,
2013-09-22 22:07:00,57.4,53.6,29.87,ESE,120,7.0,8.0,87,0.00,,CLR,0.00,VWS V14.01,2013-09-23 03:07:00,
2013-09-22 22:12:00,57.2,53.4,29.88,ESE,111,9.0,9.0,87,0.00,,CLR,0.00,VWS V14.01,2013-09-23 03:12:00,
2013-09-22 22:17:00,57.1,53.3,29.88,ESE,116,6.0,9.0,87,0.00,,CLR,0.00,VWS V14.01,2013-09-23 03:17:00,
2013-09-22 22:22:00,56.9,53.4,29.88,ESE,116,8.0,9.0,88,0.00,,CLR,0.00,VWS V14.01,2013-09-23 03:22:00,
2013-09-22 22:27:00,56.8,53.3,29.88,SE,128,7.0,9.0,88,0.00,,CLR,0.00,VWS V14.01,2013-09-23 03:27:00,
2013-09-22 22:32:00,56.6,53.1,29.88,ESE,117,6.0,8.0,88,0.00,,CLR,0.00,VWS V14.01,2013-09-23 03:32:00,
2013-09-22 22:37:00,56.5,53.0,29.87,SE,125,5.0,8.0,88,0.00,,CLR,0.00,VWS V14.01,2013-09-23 03:37:00,
2013-09-22 22:42:00,56.4,52.9,29.87,SE,128,6.0,9.0,88,0.00,,CLR,0.00,VWS V14.01,2013-09-23 03:42:00,
2013-09-22 22:47:00,56.3,52.8,29.87,SE,139,5.0,10.0,88,0.00,,CLR,0.00,VWS V14.01,2013-09-23 03:47:00,
2013-09-22 22:52:00,56.3,52.8,29.88,SE,133,5.0,10.0,88,0.00,,CLR,0.00,VWS V14.01,2013-09-23 03:52:00,
2013-09-22 22:57:00,56.2,52.7,29.88,SE,128,4.0,10.0,88,0.00,,CLR,0.00,VWS V14.01,2013-09-23 03:57:00,
2013-09-22 23:01:00,56.2,52.7,29.88,ESE,118,7.0,7.0,88,0.00,,CLR,0.00,VWS V14.01,2013-09-23 04:01:00,
2013-09-22 23:06:00,56.1,52.6,29.88,SE,134,5.0,9.0,88,0.00,,CLR,0.00,VWS V14.01,2013-09-23 04:06:00,
2013-09-22 23:11:00,55.9,52.4,29.88,ESE,111,6.0,9.0,88,0.00,,CLR,0.00,VWS V14.01,2013-09-23 04:11:00,
2013-09-22 23:16:00,55.8,52.3,29.88,SE,134,6.0,9.0,88,0.00,,CLR,0.00,VWS V14.01,2013-09-23 04:16:00,
2013-09-22 23:21:00,55.7,52.5,29.88,ESE,121,6.0,9.0,89,0.00,,CLR,0.00,VWS V14.01,2013-09-23 04:21:00,
2013-09-22 23:26:00,55.5,52.3,29.88,ESE,118,6.0,9.0,89,0.00,,CLR,0.00,VWS V14.01,2013-09-23 04:26:00,
2013-09-22 23:31:00,55.4,52.2,29.88,SSE,148,6.0,7.0,89,0.00,,CLR,0.00,VWS V14.01,2013-09-23 04:31:00,
2013-09-22 23:36:00,55.3,52.1,29.88,SE,126,6.0,8.0,89,0.00,,CLR,0.00,VWS V14.01,2013-09-23 04:36:00,
2013-09-22 23:41:00,55.1,51.9,29.88,SE,135,5.0,8.0,89,0.00,,CLR,0.00,VWS V14.01,2013-09-23 04:41:00,
2013-09-22 23:46:00,54.9,51.7,29.87,SE,138,5.0,8.0,89,0.00,,CLR,0.00,VWS V14.01,2013-09-23 04:46:00,
2013-09-22 23:51:00,54.7,51.5,29.87,SE,126,7.0,8.0,89,0.00,,CLR,0.00,VWS V14.01,2013-09-23 04:51:00,
2013-09-22 23:56:00,54.6,51.4,29.87,ESE,111,5.0,8.0,89,0.00,,CLR,0.00,VWS V14.01,2013-09-23 04:56:00,